Regional Weather Roundup
Issued by NWS

Home | Current Version | Previous Version | Graphics & Text | Print | Product List | Glossary On
Versions: 1 2 3 4 5 6 7 8 9 10 11 12 13 14 15 16 17 18 19 20 21 22 23 24 25 26 27 28 29 30 31 32 33 34 35 36 37 38 39 40 41 42 43 44 45 46 47 48 49 50
310
ASUS43 KDTX 230410
RWRMI
MICHIGAN HOURLY REGIONAL WEATHER ROUNDUP
NATIONAL WEATHER SERVICE DETROIT/PONTIAC MI
ISSUED BY NATIONAL WEATHER SERVICE GRAND RAPIDS MI
1200 AM EDT TUE MAY 23 2017

NOTE: "FAIR" INDICATES FEW OR NO CLOUDS BELOW 12,000 FEET WITH NO
SIGNIFICANT WEATHER AND/OR OBSTRUCTION TO VISIBILITY.

MIZ047>049-052>055-059>063-066>070-074>076-081>083-230500-
SOUTHEAST LOWER MICHIGAN

CITY           SKY/WX    TMP DP  RH WIND       PRES   REMARKS
ADRIAN         PTCLDY    55  48  77 SW3       29.96F
ALMA           PTCLDY    56  49  78 CALM      29.89F
ANN ARBOR      PTCLDY    54  47  77 S5        29.94F
BAD AXE        CLOUDY    55  50  81 S3        29.92F
DETROIT CITY   PTCLDY    60  47  61 S3        29.94F
DETROIT        PTCLDY    59  48  67 S6        29.95F
FLINT          CLEAR     60  47  61 S8        29.91F
GROSSE ILE     MOCLDY    60  47  62 SW5       29.94F
HILLSDALE      PTCLDY    55  46  71 S5        29.94S
HOWELL         CLOUDY    61  45  55 S6        29.92F

CITY           SKY/WX    TMP DP  RH WIND       PRES   REMARKS
JACKSON        PTCLDY    61  47  59 S8        29.93F
LANSING        PTCLDY    61  46  57 S8        29.91F
MASON          PTCLDY    60  49  66 S3        29.92S
MONROE         CLOUDY    58  48  68 S3        29.94F
MT. CLEMENS    PTCLDY    55  49  79 S5        29.92F
PONTIAC        PTCLDY    59  47  64 S6        29.92F
PORT HOPE        N/A     58  49  72 SW5       29.90F
PORT HURON     CLEAR     52  48  87 CALM      29.94F
TRI CITIES     CLOUDY    60  49  66 SE5       29.89F
YPSILANTI      PTCLDY    58  51  78 S6        29.94F
$$
MIZ043>046-050>051-056>058-064>065-071>073-077>080-230500-
SOUTHWEST LOWER MICHIGAN

CITY           SKY/WX    TMP DP  RH WIND       PRES   REMARKS
BATTLE CREEK   MOCLDY    61  50  67 S9        29.92F
BENTON HARBOR  CLOUDY    64  49  57 SW14G22   29.91F
BIG RAPIDS     LGT RAIN  55  51  88 S7        29.87F
COLDWATER      MOCLDY    62  47  59 CALM      29.94S
HOLLAND        CLOUDY    62  50  64 SW15      29.90F
GRAND RAPIDS   CLOUDY    63  48  58 SW13      29.89F
KALAMAZOO      MOCLDY    61  47  59 SW9       29.92F
MARSHALL       CLOUDY    62  48  60 S8        29.92S
MOUNT PLEASANT CLOUDY    56  50  82 CALM      29.88F
MUSKEGON       CLOUDY    58  49  72 SW15G24   29.88S
STURGIS        MOCLDY    60  50  69 SW8       29.94R
$$
MIZ016>042-230500-
NORTHERN LOWER MICHIGAN

CITY           SKY/WX    TMP DP  RH WIND       PRES   REMARKS
ALPENA         CLOUDY    54  45  71 NW5       29.89R
BEAVER ISLAND  CLEAR     43  42  96 W5        29.86R FOG
BELLAIRE       CLOUDY    54  46  74 CALM      29.87S
CADILLAC       MOCLDY    54  48  79 CALM      29.86F
CHARLEVOIX     CLOUDY    48  47  99 SW7       29.89S
GAYLORD        CLOUDY    52  46  80 E3        29.87F
HOUGHTON LAKE  CLOUDY    55  48  77 SW6       29.88S
MANISTEE       CLOUDY    53  47  79 N8        29.86R
OSCODA         CLOUDY    56  45  66 SW7       29.88S
PELLSTON       CLOUDY    51  49  92 CALM      29.86S
TRAVERSE CITY  MOCLDY    55  46  71 SW3       29.86S
LUDINGTON      PTCLDY    54  49  83 S3        29.84F
$$
MIZ007>008-015-230500-
EASTERN UPPER MICHIGAN

CITY           SKY/WX    TMP DP  RH WIND       PRES   REMARKS
MACKINAC ISLAN CLOUDY    49  49 100 SE9       29.84F
NEWBERRY       CLOUDY    46  45  97 CALM      29.84R
S. S. MARIE    CLOUDY    49  47  93 SE3       29.84F
$$
MIZ004>006-011>014-085-230500-
CENTRAL UPPER MICHIGAN

CITY           SKY/WX    TMP DP  RH WIND       PRES   REMARKS
MANISTIQUE       N/A     42  39  89 CALM      29.84S FOG
ESCANABA       CLEAR     44  42  93 CALM      29.86R
MENOMINEE      CLEAR     46  46 100 CALM      29.86S
SAWYER-GWINN   CLEAR     40  38  93 CALM      29.85S
$$
MIZ001>003-009>011-084-230500-
WESTERN UPPER MICHIGAN

CITY           SKY/WX    TMP DP  RH WIND       PRES   REMARKS
IRON MOUNTAIN  CLEAR     40  36  86 CALM      29.83F
HOUGHTON       CLOUDY    50  42  74 NW8       29.82S
COPPER HARBOR    N/A     47  43  86 CALM      29.81S
IRONWOOD       CLOUDY    46  44  93 CALM      29.84S
$$

ABBREVIATIONS USED IN REMARKS
   TC - TEMPERATURE IN CELSIUS
  WCI - WIND CHILL INDEX
   HX - HEAT INDEX
  VSB - VISIBILITY





USA.gov is the U.S. government's official web portal to all federal, state and local government web resources and services.